STARLINK-32322, 61720

Orbit data source: Space-Track

STARLINK-32322, 61720 is a payload satellite owned by SpaceX/Seattle (US) in LEO that was launched on Wed, 30 Oct 2024 UTC via an FALCON 9 launch vehicle from the Air Force Eastern Test Range (AFETR). Payload-class satellites include a variety of spacecraft equipped with specific instruments for various scientific and technological missions. These include communications satellites like Starlink; space stations such as the ISS; scientific satellites like the Hubble; Earth observation satellites from companies like Planet Labs, Umbra, and HawkEye 360; GPS; miniature CubeSats for education and research; and military/defense satellites.

Loading next visibility...
Identifier
61720, 2024-196P
Orbit
LEO
Last TLE update
4 hours ago
Origin
Manufacturer
SpaceX/Seattle
Mission
Operational Commercial Communications
Bus & Motor
STARLINK V2M, Unknown motor
Mass
730 kg wet, ~700 kg dry
Launch date (UTC)
2024-10-30 (8 months ago)
Launch vehicle
FALCON 9
Launch site
Air Force Eastern Test Range (AFETR)
Object type
Payload
Rocket body
Debris
Shape & HBR
Box + 2 Pan, 29 m
Radar Cross Section
36.964 m², Large (>1 m²)

Expand to show TLE details & history

TLE from 4 hours ago
0 STARLINK-32322
1 61720U 24196P   25182.23737992 -.00001740  00000-0 -46634-4 0  9999
2 61720  53.1603 189.6308 0001081  90.5175 269.5949 15.30194877 38671
Epoch: 2025-07-01T05:41Z
TLE epoch observation values (Epoch: 2025-07-01T05:41:49.625Z)
Latitude
-0.00005°
Longitude
-175.36173°
Altitude
476.135 km
Speed
7.629 km/s
True Right ascension
12h 38m 31s
True Declination
0° 00' 00"
Sunlit
Object was in daylight at epoch
Visualization orbit readout
Latitude
-51.29352°
Longitude
115.39632°
Altitude
493.717 km
Speed
7.617 km/s
Apparent Right ascension
08h 55m 14s
Apparent Declination
-46° 19' 45"
Sunlit
Object is in daylight
Visualization observer readout
Local Sidereal Time
21:42:19
Azimuth
130.663° SE
Elevation
-79.297°
Doppler factor
1
Orbital elements
Apogee altitude
476.228 km
Perigee altitude
474.746 km
Semi-major axis
6,853.624 km
Eccentricity
0.00011
Inclination
53.1603°
RAAN
189.6308°
Arg. of periapsis
90.5175°
True anomaly
Unknown
Mean anomaly
269.5949°
Eccentric anomaly
Unknown
Mean motion
3.82528 °/min
Orbital period
94.11 mins
BSTAR
-0.000046634
Loading maneuver chart data...
Loading SW <> Apogee altitude chart data...
Loading historical data...
Loading historical data...
Loading historical data...
Loading historical data...
Loading historical data...
Loading historical data...
Loading historical data...

STARLINK-32322 Visibility forecast

Observer location: undefined°, undefined°

Span
Click to sort rows by Start time (UTC) header in descending order
Start Az.
Max El. time (UTC)
Max El. Az.
Max El.
End time (UTC)
End Az.
5 mins2025-07-01 10:55:56.516Z288.999° WNW2025-07-01 10:57:56.516Z247.181° WSW30.67°2025-07-01 11:00:56.516Z163.769° S
4 mins2025-07-02 02:14:56.516Z162.162° S2025-07-02 02:15:56.516Z139.123° SSE21.446°2025-07-02 02:18:56.516Z78.821° E
5 mins2025-07-02 03:51:56.516Z265.504° W2025-07-02 03:53:56.516Z322.499° NNW33.278°2025-07-02 03:56:56.516Z34.908° NE
5 mins2025-07-02 08:48:56.516Z342.351° N2025-07-02 08:50:56.516Z28.475° NE23.63°2025-07-02 08:53:56.516Z85.78° E
|